Location: Bucquoy
(50.1391°N, 2.7097°E)
Time: 09:13:38
(UTC+00:00)

Okean 2 - Pass Details

Date: 06 May 2021
Orbit: 558 x 577 km, 82.5° (Epoch: 21 June)

Event Time Altitude Azimuth Distance (km) Brightness Sun altitude
Exits shadow 02:19:26 28° 216° (SW) 1,106 4.2 -15.2°
Maximum altitude 02:21:27 56° 283° (WNW) 691 3.6 -15.0°
Drops below altitude 10° 02:25:35 10° 3° (N) 1,902 6.9 -14.6°
Sets 02:27:49 0° 7° (N) 2,804 8.0 -14.4°
